Погода Алтай

Погода Алтай : погода сейчас, прогноз погоды и архив. Всё, что Вы хотите узнать о погоде Алтай!

Поиск расширенной информации на нашем сайте:

Другие новости

Новости СМИ2

Главная страница сайта

Новости сайта

03.07.2017

Напоминаем, что на нашем специализированном сайте Метеоцентр.Азия вы можете получить высокодетализированные автоматические прогнозы погоды по пунктам России, СНГ и мира в авиационном формате (включающие направление и скорость ветра, видимость, явления погоды, количество и форму облачности, нижнюю и верхнюю границу облачности).

Рекомендуем: купить офис в бизнес центре хамовническая слобода

Погода Алтай - сегодня

Время (UTC), дата Ветер
(°,м/с) 
Видим.   Явления Облачность Т
(°С)
Тd
(°С)
f(%) Тe
(°С)
Pmin
(гПа)
dP
(гПа)
Po
(мм)
O2
(г/м3)
Тmin Tmax R s Состояние
почвы
03 17.05.18 240 (ЮЗ) 20000 м    10/0 верхняя 
[Ci sp]
+1.4 -8.5 48 -1  1016.9  -2  760  305  -7        влажная 
06 17.05.18 250 (З) н/о    н/о 
+3.3 -5.4 53 +1  1014.6  758  302           
12 17.05.18 010 (С) 2{11}  н/о    н/о 
+4.9 +1.2 77 +5  1010.6  -3.2  755  299           
15 17.05.18 020 (С) 20000 м  в посл. час ливневой дождь  10/10 600 м кучево-дожд. 
[Cb calv]
+1.8 +0.3 90 +3  1010.9  0.2  755  302    +6.8  0.4     
03 18.05.18 010 (С) 5-10{11}  20000 м  [диам. отлож. мокр. снега 0 мм]  4/4 600 м кучево-дожд. 
[Cb calv]
-3 -9.2 62 -7  1015.7  2.4  759  310  -3.9      влажная 
06 18.05.18 020 (С) 6-11{15}  н/о    н/о 
-1.9 -10.1 53 -6  1018.5  2.8  761  310           
12 18.05.18 030 (СВ) 3{12}  н/о    н/о 
+3.9 -9.3 37 +3  1021.6  1.5  763  304           
15 18.05.18 040 (СВ) 20000 м    ясно 
+2.6 -8.6 43 +1  1023  1.5  764  306    +4       
18 18.05.18 тихо ()   20000 м    ясно 
-3.9 -7.9 74 -4  1024.4  1.2  765  314           
21 18.05.18 тихо ()   20000 м    ясно 
-6.2 -8.9 81 -6  1024.6  0.2  765  316           
00 19.05.18 тихо ()   20000 м    4/0 верхняя 
[Ci fib]
-5.5 -7.1 88 -6  1025.6  766  316           
03 19.05.18 230 (ЮЗ) 20000 м    ясно 
+4.4 -6.7 44 +3  1025  -0.4  766  304  -6.9        влажная 
06 19.05.18 260 (З) 2{11}  н/о    н/о 
+8.1 -6.8 34 +8  1023.7  -1.3  765  300           
09 19.05.18 240 (ЮЗ) 20000 м    3/0 верхняя 
[Ci sp]
+11.7 -5.5 30 +11  1022.1  -1.5  764  296           
12 19.05.18 230 (ЮЗ) н/о    н/о 
+12.2 -4.9 30 +12  1020.3  -1.8  762  295           
18 19.05.18 190 (Ю) 20000 м    8/3 600 м средняя, верхняя 
[Sc|Ac trans|Ci sp]
+8.3 -4.6 40 +8  1017.1  -1.6  760  298           
21 19.05.18 190 (Ю) 20000 м    8/0 средняя, верхняя 
[Ac trans|Ci sp]
+7 -5.7 40 +6  1014.4  -2.7  758  298           
00 20.05.18 180 (Ю) 20000 м    10/4 600 м кучево-дожд., средняя 
[Cb calv|Ac und]
+7.8 -3.9 43 +7  1011.8  -2.5  756  297           
03 20.05.18 190 (Ю) 5-11{11}  20000 м    10/5 600 м кучево-дожд., средняя 
[Cb calv|Ac lent]
+9 -0.6 51 +8  1007.9  -4  753  294  +6.5        сухая 
06 20.05.18 180 (Ю) 4{11}  н/о    н/о 
+9.8 +5.3 74 +9  1006.4  -1.5  752  292           
12 20.05.18 210 (ЮЗ) 5{12}  н/о    н/о 
+23.7 +11 45 +26  1001.4  -2  748  275           
15 20.05.18 220 (ЮЗ) 2{24}  20000 м  в посл. час гроза{ливн. осадки}  9/4 600 м кучево-дожд., верхняя 
[Cb calv|Ci sp]
+14.6 +13.4 93 +21  1001.4  -0.2  748  283    +24.1     
18 20.05.18 220 (ЮЗ) 20000 м  {гроза, ливн. осадки}  8/5 600 м средняя 
[Sc|Ac trans]
+14.2 +12.5 90 +19  1000.9  -0.5  748  284           
21 20.05.18 300 (СЗ) 20000 м    10/10 600 м 
[Sc]
+13 +12.1 94 +17  1001.5  0.5  748  285           
00 21.05.18 340 (С) 10 км  слаб. ливневой дождь  10/10 300 м 
[]
+7.1 +6.2 94 +6  1005.8  4.2  751  294           
Время (UTC), дата Ветер
(°,м/с) 
Видим.   Явления Облачность Т
(°С)
Тd
(°С)
f(%) Тe
(°С)
Pmin
(гПа)
dP
(гПа)
Po
(мм)
O2
(г/м3)
Тmin Tmax R s Состояние
почвы

Для получения пояснительной информации подведите курсор к названию столбца.

ПОГОДА Алтай - архив

Всё, что Вы хотите узнать о погоде Алтай - удобно и подробно!

Выберите нужную дату (начиная с 1 января 2015* года) и нажмите кнопку "Найти".
Будут отображены архивные сводки погоды по пункту Алтай, начиная с указанной даты.


Отображать данные в формате CSV (для использования в таблицах Excel)


Внимание! Наш архив погоды предназначен исключительно для личного некоммерческого использования в познавательных целях. Если Вам необходимы официальные справки о состоянии погоды (для производственных, юридических, коммерческих и т.п. целей), обращайтесь в органы Росгидромета.

*Примечание: данная дата относится к архиву по метеостанциям СССР (Россия, СНГ, Балтия).
Архив по метеостанциям Зарубежной Европы и Азии (кроме Китая) хранится 10 дней, по другим регионам земного шара (Китай, Африка, Америка, Австралия, Океания) - 1 день.

Алтай - район местоположения метеостанции


Название, широта, долгота, высота метеостанции:
Алтай 60.3°ш. 68.9°д. 30 м над ур. моря [Российская Федерация]

Дополнительная информация

В oтличие oт бoльшинства пoгoдных сайтoв мы публикуем пoдрoбную метеoинфoрмацию в детальнoм прoфессиoнальнoм фoрмате.

Характеристики температуры и влажнoсти вoздуха измеряются на высoте 2 м в тени вдали oт зданий и деревьев.
Скoрoсть ветра измеряется на высoте 10 м (на урoвне рoста челoвека скoрoсть ветра ниже в 1.5-2 раза). Если метеoстанция нахoдится в гoрoде или в лесу, тo скoрoсть ветра занижена на 2-4 м/с пo сравнению с oткрытым местoм. Скoрoсть ветра над акватoриями крупных рек и oзёр, а также на вершинах хoлмoв на 2-5 м/с выше, чем в oбычных услoвиях.
Атмoсфернoе давление в разных тoчках местнoсти мoжет значительнo oтличаться oт давления на метеoстанции, в зависимoсти oт услoвий рельефа (при пoдъёме на 10 м давление пoнижается примернo на 1 мм рт.ст.).